SCP
0 0 0 0 0 0 0 0 0 0 0 0 0 0 0 0 0 0 0 0 0 0 0 0 0 0 0 0 0 0 0 0 0 0 0 0 0 0
0 0 0 0 0 0 0 0 0 0 0 0 0 0 0 0 0 0 0 0 0 0 0 0 0 0 0 0 0 0 0 0 0 0 0 0 0 0
0 0 0 0 0 0 0 0 0 0 0 0 0 0 0 0 0 0 0 0 0 0 0 0 0 0 0 0 0 0 0 0 0 0 0 0 0 0
0 0 0 0 0 0 0 0 0 0 0 0 0 0 0 0 0 0 0 0 0 0 0 0 0 0 0 0 0 0 0 0 0 0 0 0 0 0
0 0 0 0 0 0 0 0 0 0 0 0 0 0 0 0 0 0 0 0 0 0 0 0 0 0 0 0 0 0 0 0 0 0 0 0 0 0
0 0 0 0 0 0 0 0 0 0 0 0 0 0 0 0 0 0 0 0 0 0 0 0 0 0 0 0 0 0 0 0 0 0 0 0 0 0
0 0 0 0 0 0 0 0 0 0 0 0 0 0 0 0 0 0 0 0 0 0 0 0 0 0 0 0 0 0 0 0 0 0 0 0 0 0
0 0 0 0 0 0 0 0 0 0 0 0 0 0 0 0 0 0 0 0 0 0 0 0 0 0 0 0 0 0 0 0 0 0 0 0 0 0
0 0 0 0 0 0 0 0 0 0 0 0 0 0 0 0 0 0 0 0 0 0 0 0 0 0 0 0 0 0 0 0 0 0 0 0 0 0
0 0 0 0 0 0 0 0 0 0 0 0 0 0 0 0 0 0 0 0 0 0 0 0 0 0 0 0 0 0 0 0 0 0 0 0 0 0
0 0 0 0 0 0 0 0 0 0 0 0 0 0 0 0 0 0 0 0 0 0 0 0 0 0 0 0 0 0 0 0 0 0 0 0 0 0
0 0 0 0 0 0 0 0 0 0 0 0 0 0 0 0 0 0 0 0 0 0 0 0 0 0 0 0 0 0 0 0 0 0 0 0 0 0
0 0 0 0 0 0 0 0 0 0 0 0 0 0 0 0 0 0 0 0 0 0 0 0 0 0 0 0 0 0 0 0 0 0 0 0 0 0
0 0 0 0 0 0 0 0 0 0 0 0 0 0 0 0 0 0 0 0 0 0 0 0 0 0 0 0 0 0 0 0 0 0 0 0 0 0
0 0 0 0 0 0 0 0 0 0 0 0 0 0 0 0 0 0 0 0 0 0 0 0 0 0 0 0 0 0 0 0 0 0 0 0 0 0
0 0 0 0 0 0 0 0 0 0 0 0 0 0 0 0 0 0 0 0 0 0 0 0 0 0 0 0 0 0 0 0 0 0 0 0 0 0
0 0 0 0 0 0 0 0 0 0 0 0 0 0 0 0 0 0 0 0 0 0 0 0 0 0 0 0 0 0 0 0 0 0 0 0 0 0
0 0 0 0 0 0 0 0 0 0 0 0 0 0 0 0 0 0 0 0 0 0 0 0 0 0 0 0 0 0 0 0 0 0 0 0 0 0
0 0 0 0 0 0 0 0 0 0 0 0 0 0 0 0 0 0 0 0 0 0 0 0 0 0 0 0 0 0 0 0 0 0 0 0 0 0
0 0 0 0 0 0 0 0 0 0 0 0 0 0 0 0 0 0 0 0 0 0 0 0 0 0 0 0 0 0 0 0 0 0 0 0 0 0
0 0 0 0 0 0 0 0 0 0 0 0 0 0 0 0 0 0 0 0 0 0 0 0 0 0 0 0 0 0 0 0 0 0 0 0 0 0
0 0 0 0 0 0 0 0 0 0 0 0 0 0 0 0 0 0 0 0 0 0 0 0 0 0 0 0 0 0 0 0 0 0 0 0 0 0
0 0 0 0 0 0 0 0 0 0 0 0 0 0 0 0 0 0 0 0 0 0 0 0 0 0 0 0 0 0 0 0 0 0 0 0 0 0
Wind_Speed
2 3 2 2 2 2 3 4 5 3 1 1 0 1 1 2 3 3 3 8 10 10 11 12 12 13 14 14 15 15 15 16 16 16 16 16 16 17
2 3 2 2 2 2 2 2 3 4 2 1 1 0 1 2 4 3 4 7 9 9 10 11 11 12 12 13 13 13 14 14 14 14 15 15 15 15
2 3 2 3 3 2 2 3 2 3 4 1 1 1 2 2 2 2 3 3 3 8 9 10 10 11 11 11 12 12 13 13 13 13 13 14 14 14
3 3 3 3 3 2 3 3 3 3 4 4 1 1 2 2 2 2 2 3 2 6 8 8 9 9 10 10 10 10 11 11 11 12 12 12 13 13
4 4 4 4 3 2 3 3 3 3 3 4 2 1 1 2 2 2 2 2 2 3 5 6 7 7 8 8 9 9 9 9 10 11 11 11 12 12
3 4 4 5 4 4 3 4 4 4 4 4 3 2 1 1 2 2 1 1 2 2 3 3 5 6 6 7 7 7 8 8 9 9 10 10 10 11
3 3 3 5 6 5 4 4 5 4 4 3 3 2 1 2 2 2 2 1 1 1 1 2 2 2 3 4 5 6 6 6 7 7 7 8 9 9
3 2 2 3 4 5 6 7 8 6 6 4 3 3 3 3 2 3 2 1 0 0 1 1 1 1 1 1 3 4 4 5 5 6 6 6 7 7
4 3 2 3 3 3 4 5 5 6 8 6 5 5 5 5 5 3 3 2 2 1 2 0 1 1 1 2 3 3 3 4 4 4 5 6 6 6
3 3 3 3 3 4 4 3 2 2 3 4 5 5 4 5 5 4 4 3 1 1 1 1 0 1 1 2 3 3 3 3 3 4 4 5 5 6
3 3 4 3 6 7 5 4 2 0 1 3 3 3 4 7 7 5 4 3 1 1 1 2 1 0 1 1 2 3 3 3 3 3 3 3 4 4
2 2 5 5 7 8 5 5 4 2 1 2 2 3 2 4 6 4 5 3 2 2 2 2 2 1 0 1 1 1 1 2 2 3 3 3 3 2
2 2 2 6 7 7 6 4 5 4 3 3 2 2 2 2 1 1 2 3 3 3 3 3 2 2 1 1 1 1 0 0 1 1 2 3 3 2
4 3 3 7 7 7 5 5 6 5 3 3 2 1 1 1 0 1 1 1 1 2 3 4 3 3 3 1 1 1 1 0 0 0 1 3 3 3
3 5 6 7 6 5 5 7 6 4 3 3 2 1 1 1 1 1 2 2 2 1 1 2 3 3 3 3 2 1 0 1 0 1 1 1 1 1
3 4 6 6 4 4 4 4 3 3 3 3 2 1 1 1 1 1 1 1 1 2 2 1 1 3 2 2 2 2 1 1 1 1 1 1 1 1
5 3 2 3 2 2 2 2 2 2 2 2 2 2 2 1 1 1 1 1 1 0 1 1 2 2 2 2 1 1 1 1 1 1 0 1 2 2
6 4 3 3 4 4 3 3 2 2 2 2 2 2 2 2 1 1 1 1 1 1 1 0 1 1 1 1 1 2 1 1 1 1 1 1 3 2
4 4 4 5 4 4 4 4 3 3 3 3 3 3 3 2 2 2 2 1 1 1 1 1 1 1 1 2 2 1 2 1 1 1 1 2 3 3
3 4 5 4 4 4 4 3 3 3 3 3 3 3 3 3 2 2 3 3 2 1 1 1 2 2 3 2 1 1 2 2 2 2 2 1 3 4
5 4 4 4 4 4 4 4 4 4 4 3 3 3 3 3 3 3 3 4 3 2 2 2 2 2 1 1 0 1 1 2 3 3 2 1 2 2
5 5 4 5 4 4 4 4 4 4 4 4 4 4 4 4 4 4 4 3 3 3 2 1 1 1 1 1 2 2 2 2 2 3 3 4 2 2
5 5 5 5 5 4 4 5 5 4 4 4 4 4 4 4 3 3 4 3 3 3 2 1 1 0 0 1 2 2 2 2 2 1 2 4 6 7
Wind_Direction
158 150 141 148 146 148 146 149 145 148 194 263 340 354 36 63 48 50 51 59 58 55 55 56 55 54 54 55 54 52 52 52 54 54 53 51 51 51
142 136 133 138 137 138 143 136 135 143 156 203 207 225 82 92 80 63 63 66 61 62 61 61 59 56 55 56 56 54 53 53 53 53 52 52 51 50
144 145 150 140 133 132 127 126 124 125 134 139 80 71 77 85 63 59 64 54 56 66 66 64 62 60 57 56 57 55 53 52 50 51 51 50 50 49
161 150 155 141 131 132 131 136 137 134 137 142 116 83 82 105 93 82 73 74 64 67 66 64 64 62 59 56 58 57 55 53 50 49 48 49 49 48
167 166 166 150 147 144 138 139 139 132 126 139 135 105 91 105 90 76 69 44 66 71 66 59 63 66 65 62 60 57 57 56 52 49 48 48 48 47
165 165 167 167 169 162 152 151 139 128 123 127 126 113 107 101 108 110 70 37 39 44 54 56 54 56 59 65 64 61 61 59 55 51 47 46 45 43
151 156 169 172 175 174 163 159 148 138 135 133 138 130 145 152 170 169 144 85 27 29 51 34 32 30 26 38 58 61 62 61 56 52 50 46 42 40
149 146 152 157 159 165 166 163 159 156 161 156 162 173 193 187 164 160 153 137 245 283 111 27 54 28 353 9 47 59 59 60 56 50 51 47 41 36
153 153 154 143 140 135 137 142 160 168 168 166 172 190 188 189 168 169 179 177 198 190 130 46 15 359 337 14 47 57 59 56 55 55 56 48 40 33
154 161 161 156 154 145 132 123 131 167 186 181 188 196 191 179 173 172 164 141 98 59 135 156 264 295 351 347 23 52 59 53 53 56 56 50 43 35
156 159 161 167 166 150 139 139 138 189 160 165 171 166 160 160 152 130 133 134 171 238 178 159 181 221 329 328 347 24 41 50 57 59 59 54 46 36
149 166 173 170 166 158 153 153 164 201 135 109 97 93 113 141 151 158 162 158 165 217 197 162 166 150 286 310 336 353 5 15 32 41 44 48 44 43
169 180 188 176 172 170 165 170 180 162 135 122 102 82 77 85 106 137 164 169 175 208 187 162 163 164 173 257 314 306 291 337 3 8 13 22 27 49
182 187 183 175 174 169 166 163 155 138 127 123 117 117 117 119 101 110 124 139 175 197 178 164 167 172 164 180 245 292 308 308 299 318 346 1 2 359
180 177 169 164 161 161 164 155 144 135 138 142 160 183 182 166 130 97 77 83 58 39 102 173 173 167 166 185 197 202 250 301 280 269 309 324 318 333
155 152 147 142 136 139 143 146 142 156 159 168 168 162 133 125 130 123 118 96 65 7 20 51 135 155 166 185 184 209 204 228 293 273 277 292 301 290
139 119 119 129 138 141 141 143 148 151 160 157 156 158 160 155 166 140 133 111 128 197 334 16 55 88 107 146 172 213 211 223 241 264 248 286 283 280
140 151 164 170 177 179 176 176 178 183 183 174 171 175 178 181 182 154 129 148 174 210 220 165 79 68 52 14 226 212 219 231 239 227 202 240 281 285
154 173 182 188 190 186 185 185 190 192 180 180 186 185 182 182 177 171 161 161 191 212 220 185 156 145 204 261 290 219 200 206 207 242 229 221 255 280
183 185 192 192 189 188 190 190 185 175 175 183 185 184 182 184 187 186 185 188 195 199 212 211 210 206 214 230 246 277 223 204 206 233 249 247 261 283
195 194 191 189 189 188 189 187 183 182 183 184 188 186 185 183 192 195 194 195 191 194 213 237 246 213 149 108 207 279 288 241 218 217 228 253 284 298
194 194 192 191 190 189 185 182 182 185 186 189 192 191 189 189 194 192 190 190 196 199 214 224 145 119 141 202 239 263 285 306 282 257 246 219 214 245
197 194 192 190 189 184 182 185 189 193 193 191 189 189 187 190 194 191 191 189 183 182 180 178 152 121 198 206 230 256 274 287 295 302 286 272 252 259